Regional Weather Roundup
Issued by NWS

Home | Current Version | Previous Version | Text Only | Print | Product List | Glossary On
Versions: 1 2 3 4 5 6 7 8 9 10 11 12 13 14 15 16 17 18 19 20 21 22 23 24 25 26 27 28 29 30 31 32 33 34 35 36 37 38 39 40 41 42 43 44 45 46 47 48 49 50
000
ASUS43 KDTX 272301
RWRMI
MICHIGAN HOURLY REGIONAL WEATHER ROUNDUP
NATIONAL WEATHER SERVICE DETROIT/PONTIAC MI
700 PM EDT WED AUG 27 2014

NOTE: "FAIR" INDICATES FEW OR NO CLOUDS BELOW 12,000 FEET WITH NO
SIGNIFICANT WEATHER AND/OR OBSTRUCTION TO VISIBILITY.

MIZ047>049-052>055-059>063-066>070-074>076-081>083-280000-
SOUTHEAST LOWER MICHIGAN

CITY           SKY/WX    TMP DP  RH WIND       PRES   REMARKS
ADRIAN         CLOUDY    75  60  59 N9        30.09S
ALMA           MOSUNNY   73  56  53 N6        30.11S
ANN ARBOR      PTSUNNY   73  57  57 N12       30.09S
BAD AXE        SUNNY     70  53  56 NW6       30.11F
CARO           PTSUNNY   68  59  74 N6        30.11F
DETROIT CITY   MOSUNNY   78  56  46 N9        30.08S
DETROIT        PTSUNNY   74  58  57 NW8       30.08S
FLINT          MOSUNNY   75  57  53 NW7       30.10F
GROSSE ILE     PTSUNNY   73  63  68 E5        30.06S
HILLSDALE      CLOUDY    74  60  61 N8        30.11F
HOWELL         PTSUNNY   71  60  68 CALM      30.11F

CITY           SKY/WX    TMP DP  RH WIND       PRES   REMARKS
JACKSON        PTSUNNY   71  61  70 VRB3      30.11S
LAMBERTVILLE   PTSUNNY   77  61  57 N5        30.08S
LANSING        PTSUNNY   74  59  59 NW6       30.12S
LAPEER         FAIR      71  56  59 N3        30.11F
MASON          PTSUNNY   72  59  64 N6        30.11F
MONROE         PTSUNNY   75  61  60 N5        30.06F
MT. CLEMENS    PTSUNNY   73  57  56 N13       30.08S
PONTIAC        PTSUNNY   72  56  57 N10       30.09F
PORT HOPE        N/A     64  55  72 NE13      30.12R
PORT HURON     SUNNY     66  59  77 N7        30.11S
TRI CITIES     PTSUNNY   73  58  59 N5        30.11F
TROY           MOSUNNY   74  55  49 N8        30.11R
SAGINAW HB     CLOUDY    70  59  68 CALM      30.11S
$$
MIZ043>046-050>051-056>058-064>065-071>073-077>080-280000-
SOUTHWEST LOWER MICHIGAN

CITY           SKY/WX    TMP DP  RH WIND       PRES   REMARKS
BATTLE CREEK   PTSUNNY   73  59  61 N7        30.13S
BENTON HARBOR  CLOUDY    69  59  70 VRB6      30.13F
BIG RAPIDS     PTSUNNY   69  58  68 N9        30.13S
COLDWATER      CLOUDY    75  60  59 N9        30.11S
FREMONT        FAIR      72  49  44 NW10      30.13F
HOLLAND        PTSUNNY   71  59  65 NW9       30.14F
GRAND RAPIDS   PTSUNNY   74  63  68 NW10      30.12F
IONIA          FAIR      74  58  57 NW8       30.11S
KALAMAZOO      CLOUDY    74  58  57 N10       30.12S
LUDINGTON      MOSUNNY   68  56  66 N7        30.16F
MARSHALL       PTSUNNY   71  59  65 CALM      30.11S
MOUNT PLEASANT PTSUNNY   72  54  53 NW5       30.11S
MUSKEGON       PTSUNNY   72  51  47 NW10      30.14S
SOUTH HAVEN    PTSUNNY   70  62  76 N7        30.13F
$$
MIZ016>042-280000-
NORTHERN LOWER MICHIGAN

CITY           SKY/WX    TMP DP  RH WIND       PRES   REMARKS
ALPENA         MOSUNNY   65  47  52 W7        30.12S
BEAVER ISLAND  MOSUNNY   65  46  49 N7        30.16S
BELLAIRE       SUNNY     65  49  54 NW3       30.15S
CADILLAC       CLOUDY    63  52  67 N6        30.16R
CHARLEVOIX     SUNNY     65  51  61 NW8       30.18F
FRANKFORT      SUNNY     67  50  54 NE6       30.15F
GAYLORD        MOSUNNY   62  47  57 VRB6      30.15F
GRAYLING       MOSUNNY   64  47  54 NW9       30.16S
HARBOR SPRINGS SUNNY     63  47  56 NW7       30.15F
HOUGHTON LAKE  SUNNY     65  49  56 NW12      30.16R
MANISTEE       SUNNY     66  52  59 NW7       30.16F
OSCODA         CLOUDY    64  54  69 E6        30.12R
PELLSTON       SUNNY     66  45  46 NW16      30.15F
TRAVERSE CITY  MOSUNNY   67  49  52 N6        30.15S
$$
MIZ007>008-015-280000-
EASTERN UPPER MICHIGAN

CITY           SKY/WX    TMP DP  RH WIND       PRES   REMARKS
KINROSS        SUNNY     61  43  51 NW13      30.15S
MACKINAC ISLAN SUNNY     64  47  55 N9G16     30.13S
NEWBERRY       SUNNY     60  41  49 NW9       30.16F
S. S. MARIE    SUNNY     60  46  59 NW10G23   30.15S
$$
MIZ004>006-011>014-085-280000-
CENTRAL UPPER MICHIGAN

CITY           SKY/WX    TMP DP  RH WIND       PRES   REMARKS
MANISTIQUE     SUNNY     65  44  46 N10       30.15S
ESCANABA       MOSUNNY   68  52  56 CALM      30.15R
MENOMINEE      MOSUNNY   70  55  60 S7        30.13S
$$
MIZ001>003-009>011-084-280000-
WESTERN UPPER MICHIGAN

CITY           SKY/WX    TMP DP  RH WIND       PRES   REMARKS
IRON MOUNTAIN  SUNNY     70  46  42 NW6       30.14S
HOUGHTON       SUNNY     62  44  51 W9        30.16F
COPPER HARBOR    N/A     61  47  59 N10       30.15F
$$

ABBREVIATIONS USED IN REMARKS
   TC - TEMPERATURE IN CELSIUS
  WCI - WIND CHILL INDEX
   HX - HEAT INDEX
  VSB - VISIBILITY



USA.gov is the U.S. government's official web portal to all federal, state and local government web resources and services.